Tracking 29782 objects as of 13-Oct-2024
HD Live streaming from Space Station
objects crossing your sky now

DMSP 5D-3 F17 DEB

Track DMSP 5D-3 F17 DEB now!
10-day predictions


NORAD ID: 29637
Int'l Code: 2006-050BV
Perigee: 771.7 km
Apogee: 786.1 km
Inclination: 98.5 °
Period: 100.3 minutes
Semi major axis: 7149 km
RCS: 0.1292 m2 (medium)
Launch date: November 4, 2006
Source: United States (US)
Launch site: AIR FORCE WESTERN TEST RANGE (AFWTR)

Note: This is SATELLITE DEBRIS
Your satellite tracking list
Your tracking list is empty




NASA's NSSDC Master Catalog

Two Line Element Set (TLE):
1 29637U 06050BV  24286.71713720  .00013445  00000-0  46319-2 0  9990
2 29637  98.5481 322.2165 0010003 140.9693 219.2216 14.35995512926982
Source of the keplerian elements: AFSPC